Dewpoint
5 7 7 6 7 8 8 6 5 7 6 7 7 6 6 6 6 6 5 4 3 2 3 3 -1 -3 0 -2 -4 -5 -9 -13 -15 -14 -10 -8 -5 -2
7 7 7 8 7 7 7 6 8 7 7 6 6 7 6 6 5 5 6 5 4 4 4 3 -2 -2 0 -3 -5 -10 -14 -15 -14 -13 -13 -12 -10 -5
7 7 7 7 8 7 6 7 7 7 7 7 7 7 6 6 6 6 5 5 4 4 3 1 -3 0 -2 -5 -8 -11 -11 -11 -9 -10 -10 -11 -10 -7
7 8 8 8 7 5 6 8 8 8 7 6 7 7 6 6 6 6 5 4 3 3 1 -2 -1 -2 -5 -5 -6 -6 -8 -8 -9 -11 -12 -12 -8 -10
8 8 7 5 6 9 9 8 8 7 7 6 6 7 6 5 5 5 4 3 0 -0 0 -1 -1 -2 -3 -3 -3 -4 -7 -10 -12 -12 -13 -14 -13 -13
7 7 8 9 9 8 8 7 7 7 6 6 5 5 5 5 5 4 3 1 0 -0 -1 -1 -0 -1 -1 -1 -3 -6 -7 -14 -15 -20 -26 -27 -28 -26
9 9 9 8 8 7 7 6 6 5 5 5 5 4 4 4 3 3 1 0 -0 -1 -1 -1 -1 -1 -2 -2 -3 -6 -18 -27 -23 -11 -16 -32 -31 -29
8 8 7 7 6 6 6 5 5 4 4 3 3 3 2 1 1 1 -0 -1 -2 -2 -3 -3 -4 -4 -3 -4 -4 -5 -9 -13 -14 -20 -18 -22 -24 -22
7 7 6 5 4 4 3 3 2 2 2 1 0 -0 -1 -2 -2 -3 -3 -4 -4 -4 -4 -4 -4 -4 -4 -5 -12 -14 -13 -13 -14 -12 -13 -20 -21 -20
5 4 3 3 1 0 -0 -1 -1 -2 -2 -2 -3 -3 -3 -3 -4 -4 -4 -4 -4 -4 -5 -6 -6 -6 -7 -7 -7 -8 -8 -8 -9 -10 -11 -16 -18 -18
2 1 -0 -1 -2 -3 -3 -3 -3 -4 -3 -3 -3 -4 -4 -4 -5 -5 -6 -7 -7 -7 -7 -7 -7 -7 -7 -8 -7 -7 -7 -7 -7 -7 -9 -13 -16 -16
-1 -2 -3 -3 -4 -4 -4 -4 -4 -5 -6 -6 -6 -7 -7 -8 -8 -8 -9 -9 -9 -9 -8 -8 -8 -8 -8 -7 -8 -7 -6 -7 -7 -7 -8 -10 -12 -12
-4 -4 -4 -5 -5 -6 -7 -8 -8 -8 -8 -9 -9 -9 -10 -10 -10 -10 -10 -11 -11 -11 -11 -10 -11 -11 -10 -10 -10 -9 -8 -8 -8 -8 -7 -7 -8 -8
-5 -7 -8 -9 -10 -10 -10 -11 -12 -11 -10 -10 -10 -10 -10 -11 -11 -12 -12 -12 -13 -13 -13 -13 -13 -12 -12 -12 -11 -11 -11 -10 -9 -9 -9 -10 -8 -8
-10 -10 -11 -11 -11 -10 -12 -12 -11 -12 -12 -12 -11 -11 -12 -12 -13 -13 -13 -13 -13 -13 -13 -13 -14 -14 -14 -13 -13 -13 -12 -12 -11 -10 -11 -9 -8 -8
-10 -10 -11 -11 -11 -11 -11 -11 -12 -13 -13 -13 -13 -14 -14 -14 -14 -14 -14 -15 -15 -16 -15 -14 -13 -13 -13 -13 -13 -13 -13 -12 -12 -12 -12 -12 -11 -8
-11 -11 -12 -12 -12 -13 -13 -13 -13 -14 -14 -15 -15 -16 -16 -16 -16 -16 -16 -17 -17 -17 -16 -16 -15 -15 -14 -14 -14 -15 -15 -14 -14 -15 -15 -14 -12 -9
-13 -13 -13 -14 -14 -15 -15 -16 -16 -16 -16 -17 -17 -17 -17 -17 -18 -18 -18 -18 -18 -17 -16 -17 -16 -17 -17 -18 -16 -15 -15 -14 -13 -13 -13 -11 -11 -11
-15 -15 -15 -15 -16 -17 -17 -17 -17 -17 -18 -18 -18 -18 -18 -18 -19 -18 -19 -18 -18 -18 -18 -18 -18 -18 -16 -16 -17 -15 -14 -15 -15 -14 -12 -11 -11 -12
-17 -17 -16 -17 -17 -18 -18 -18 -19 -19 -19 -19 -19 -19 -20 -19 -19 -19 -19 -19 -19 -19 -19 -19 -18 -17 -17 -17 -18 -20 -20 -18 -17 -16 -15 -14 -12 -8
-17 -17 -18 -18 -19 -19 -19 -20 -20 -20 -20 -20 -20 -20 -20 -20 -20 -20 -20 -20 -20 -19 -19 -19 -19 -19 -19 -19 -17 -17 -17 -16 -15 -14 -13 -12 -12 -8
-19 -19 -19 -19 -20 -20 -20 -20 -20 -21 -21 -21 -21 -21 -21 -21 -21 -21 -20 -20 -19 -19 -19 -19 -19 -19 -18 -18 -18 -17 -17 -18 -16 -14 -14 -13 -12 -8
-20 -20 -21 -21 -21 -21 -21 -22 -22 -22 -22 -22 -22 -22 -22 -22 -21 -21 -21 -20 -20 -20 -20 -19 -19 -19 -19 -18 -18 -18 -17 -16 -15 -14 -12 -11 -10 -9
Wind_Speed
37 32 33 34 32 31 32 39 40 36 43 41 44 50 49 47 48 47 51 44 47 48 47 46 44 45 44 44 43 41 40 39 39 39 37 36 33 31
35 36 33 32 35 36 38 41 44 47 53 47 52 47 48 45 45 48 47 48 51 50 50 48 46 45 44 42 40 40 39 39 39 39 39 38 38 35
33 35 38 38 39 39 43 46 51 52 53 56 52 48 52 54 54 46 49 53 57 55 53 48 48 44 43 41 39 39 39 39 40 40 41 42 41 41
41 40 40 39 44 47 51 50 46 47 55 59 57 50 51 55 53 47 45 47 54 52 51 49 44 43 41 39 39 39 39 40 42 42 43 43 44 45
39 39 44 46 49 48 46 43 42 46 48 54 54 49 48 48 47 48 48 49 40 38 36 34 35 38 41 40 40 40 40 41 43 44 45 45 47 47
40 38 39 41 41 39 39 39 38 40 43 44 48 47 45 45 45 50 46 43 44 41 32 35 36 38 40 41 37 38 40 42 43 44 45 45 45 46
31 35 39 38 35 34 33 34 34 35 38 41 44 45 44 45 43 43 40 41 41 41 41 37 39 40 40 36 34 34 38 38 37 43 46 44 43 42
32 32 32 31 33 33 32 32 31 31 33 32 35 37 35 35 32 32 35 33 28 26 26 31 28 30 32 33 34 33 38 40 40 39 42 42 41 40
28 27 25 23 23 23 24 25 24 25 26 25 24 23 22 21 18 17 17 19 21 22 22 29 31 35 35 31 29 35 38 42 43 43 47 43 41 38
13 11 12 13 15 16 15 15 14 13 12 12 13 13 14 16 17 19 21 24 28 30 28 32 32 33 31 33 34 38 39 37 38 38 39 37 36 34
4 6 8 10 9 11 12 14 15 17 17 17 17 18 19 21 23 22 21 18 21 23 19 23 29 32 32 34 36 35 34 35 34 32 32 34 33 31
6 7 8 9 11 13 15 17 18 19 20 21 21 22 22 22 22 22 21 23 23 24 16 20 22 19 21 19 20 26 28 26 28 26 23 24 24 27
8 10 11 13 16 18 18 17 16 16 16 18 18 18 18 17 16 17 16 17 20 24 25 26 28 30 28 30 33 25 27 26 24 23 25 27 24 25
11 12 15 16 17 15 16 17 16 15 15 15 15 14 13 13 16 18 21 24 27 28 30 31 35 34 33 31 32 31 28 29 28 25 27 29 28 29
12 14 16 17 15 15 19 20 17 16 15 17 16 14 15 17 19 19 20 20 20 21 22 23 23 24 24 27 28 28 27 27 25 25 29 28 27 26
13 14 13 13 14 14 14 14 14 13 14 14 13 15 18 19 20 20 22 23 25 26 22 22 22 22 24 24 26 31 28 28 26 26 27 29 29 27
10 10 12 13 13 13 13 13 13 15 16 16 19 22 21 22 23 24 24 26 28 28 26 24 22 23 23 24 28 28 31 30 29 29 28 32 30 28
9 11 11 12 13 14 15 15 15 17 18 20 20 20 21 22 24 25 23 24 26 26 24 23 25 25 25 25 23 29 30 30 28 30 29 29 31 31
11 11 12 13 14 14 15 15 16 16 17 17 18 19 20 20 21 22 22 22 22 23 24 24 24 24 27 27 25 22 23 28 26 22 18 21 28 29
13 12 12 12 12 13 13 14 15 16 16 18 18 19 19 20 21 21 21 22 23 24 24 21 20 21 24 29 34 37 28 24 20 25 29 27 24 20
12 11 11 11 12 13 14 15 16 16 18 18 18 18 19 19 20 20 21 22 22 21 23 23 22 24 26 26 30 30 28 23 23 23 23 26 25 15
11 10 11 11 12 13 14 15 15 16 17 17 18 18 18 18 19 20 20 22 21 22 24 25 24 23 24 25 29 31 30 28 22 23 26 26 28 6
10 11 11 11 12 13 14 15 15 16 16 17 17 18 18 18 18 19 20 21 22 23 24 26 26 24 24 25 28 30 29 28 26 20 10 13 12 16
Wind_Direction
260 258 260 264 262 260 263 272 274 267 268 269 271 280 276 262 260 266 264 261 256 253 252 252 246 247 253 250 250 251 252 253 255 257 255 256 255 256
253 258 258 261 265 269 271 283 286 276 272 272 275 271 272 266 266 273 258 265 257 252 251 248 243 248 250 249 250 251 252 253 255 257 260 260 261 263
259 261 264 265 262 263 276 277 273 268 261 273 268 274 268 268 268 266 264 263 253 250 247 243 241 248 247 246 248 250 253 256 259 261 262 264 263 263
259 260 261 263 266 276 280 276 286 276 270 267 272 277 272 272 270 259 260 257 252 250 246 239 241 243 242 246 249 252 255 258 260 262 263 263 262 264
259 262 263 270 277 281 285 281 288 288 278 267 272 278 274 266 265 248 242 241 232 231 235 240 238 240 244 245 250 254 257 260 261 263 265 265 265 265
262 273 278 275 279 279 287 288 291 289 282 278 273 275 270 263 258 248 240 237 234 231 231 231 233 233 237 240 246 252 259 264 265 266 265 264 263 263
265 258 270 276 278 281 285 282 283 279 278 277 277 271 269 265 266 255 251 247 241 237 240 243 243 249 247 248 255 263 266 264 267 277 270 265 264 263
269 271 276 276 278 280 284 286 285 284 279 276 273 268 270 272 268 260 254 246 243 241 241 244 241 250 260 263 265 265 265 266 268 269 273 270 267 267
271 272 276 283 290 297 300 300 298 291 283 278 275 275 273 267 261 251 247 247 251 253 266 269 267 269 275 281 268 264 264 266 270 269 267 265 265 266
276 290 295 306 312 313 317 321 321 321 321 321 313 303 294 289 285 279 275 272 270 271 273 273 276 274 272 259 263 264 270 270 270 272 270 266 264 264
334 343 340 338 353 354 341 333 328 323 320 314 307 300 293 289 287 285 282 282 285 285 283 270 275 273 271 265 263 269 267 267 265 270 276 270 268 267
18 6 2 349 334 328 328 327 326 321 317 316 315 313 309 307 306 300 296 288 283 288 288 266 277 279 282 280 276 268 263 263 264 260 270 280 280 273
6 353 345 336 330 329 329 327 325 320 320 322 321 319 319 316 307 304 301 280 276 271 276 282 284 280 274 279 266 257 277 285 278 276 271 269 268 270
354 347 344 343 345 351 344 345 342 347 337 336 334 330 322 315 300 293 289 286 287 286 285 281 280 279 280 278 277 280 276 273 272 273 277 273 266 264
359 355 356 0 6 353 359 358 359 339 335 333 328 325 323 317 313 315 310 308 305 303 301 296 293 292 286 281 281 281 283 280 279 276 273 274 267 260
7 360 0 5 3 2 360 354 349 352 351 341 334 327 322 319 317 317 315 310 306 304 300 293 292 288 284 281 283 284 284 285 284 279 276 277 270 255
14 360 357 2 359 354 350 348 343 344 343 336 327 323 320 318 314 313 310 307 307 307 305 301 297 295 292 288 286 283 284 284 282 277 274 272 273 265
16 13 5 1 356 351 346 341 337 334 329 329 325 322 319 318 315 314 314 311 310 310 309 308 307 305 299 289 279 282 281 280 280 275 268 268 271 273
33 20 11 4 -0 355 349 343 337 331 329 328 325 322 321 321 322 320 319 316 313 311 309 310 309 305 300 297 299 288 306 301 288 284 280 275 282 258
32 23 14 5 359 351 343 338 334 331 330 327 326 323 322 320 319 319 317 315 313 311 310 310 307 307 315 312 306 297 298 309 299 292 288 283 263 263
23 16 6 357 351 346 337 336 333 330 327 325 323 320 319 320 318 317 315 314 315 314 312 310 308 306 306 304 299 299 302 293 288 290 287 282 268 180
9 3 354 348 343 340 336 332 329 327 326 326 323 324 323 319 318 318 317 316 316 313 311 311 313 313 309 306 301 302 303 300 295 285 273 265 259 169
353 349 344 341 338 334 331 329 327 326 327 327 326 322 320 320 318 316 316 315 314 314 315 316 315 315 313 309 306 305 304 305 303 301 338 259 176 159
Height
1517 1517 1517 1517 1518 1518 1518 1517 1516 1511 1501 1503 1500 1499 1500 1498 1499 1501 1503 1501 1502 1502 1502 1502 1502 1504 1504 1504 1505 1505 1507 1509 1512 1513 1513 1512 1512 1512
1509 1510 1510 1510 1509 1509 1508 1506 1506 1503 1489 1494 1486 1487 1489 1487 1488 1486 1488 1489 1488 1488 1487 1488 1489 1491 1493 1494 1496 1498 1498 1499 1501 1503 1504 1504 1503 1504
1501 1502 1501 1502 1500 1499 1498 1496 1494 1490 1481 1475 1474 1474 1475 1474 1474 1471 1474 1475 1474 1472 1475 1474 1478 1480 1483 1484 1484 1487 1488 1490 1492 1492 1494 1495 1494 1494
1494 1494 1493 1493 1491 1489 1487 1484 1481 1478 1475 1466 1468 1465 1463 1462 1462 1460 1458 1461 1464 1461 1464 1464 1466 1468 1470 1473 1475 1476 1477 1479 1481 1482 1483 1483 1484 1483
1486 1485 1484 1482 1480 1477 1475 1472 1471 1467 1465 1460 1456 1457 1455 1454 1454 1450 1448 1448 1454 1455 1457 1459 1456 1457 1461 1463 1466 1467 1468 1468 1469 1470 1471 1471 1472 1472
1477 1477 1475 1471 1468 1465 1465 1462 1460 1457 1455 1452 1449 1448 1447 1445 1445 1443 1441 1439 1439 1441 1444 1445 1445 1445 1446 1449 1453 1456 1457 1457 1459 1458 1458 1457 1457 1458
1468 1466 1463 1461 1460 1459 1456 1454 1451 1449 1447 1445 1442 1439 1438 1437 1437 1435 1436 1436 1436 1437 1437 1437 1437 1439 1437 1440 1442 1444 1445 1446 1446 1446 1446 1445 1445 1445
1458 1457 1455 1453 1451 1450 1448 1445 1444 1442 1441 1439 1437 1436 1433 1434 1432 1431 1431 1432 1432 1433 1432 1430 1430 1430 1432 1431 1433 1434 1435 1436 1435 1434 1433 1433 1433 1433
1451 1449 1448 1445 1445 1444 1442 1440 1438 1436 1435 1434 1434 1432 1430 1430 1430 1429 1429 1428 1428 1429 1429 1426 1426 1423 1424 1423 1425 1426 1425 1425 1424 1423 1423 1421 1421 1421
1445 1443 1444 1442 1441 1441 1439 1438 1437 1436 1435 1434 1433 1432 1431 1430 1430 1428 1427 1425 1424 1422 1423 1417 1418 1414 1416 1416 1417 1416 1415 1413 1413 1412 1411 1410 1410 1411
1442 1442 1442 1441 1440 1440 1439 1438 1437 1435 1434 1433 1431 1430 1428 1427 1425 1423 1422 1420 1417 1416 1416 1412 1410 1407 1407 1405 1405 1405 1404 1404 1403 1403 1402 1401 1400 1401
1442 1441 1441 1441 1440 1439 1438 1436 1434 1433 1431 1429 1427 1424 1423 1421 1420 1418 1417 1415 1414 1411 1411 1408 1404 1403 1398 1396 1396 1396 1395 1394 1394 1394 1394 1393 1393 1393
1442 1441 1440 1438 1437 1436 1434 1433 1431 1430 1429 1427 1425 1423 1421 1420 1418 1416 1414 1412 1410 1408 1407 1403 1399 1397 1396 1390 1389 1389 1386 1385 1385 1386 1386 1385 1386 1386
1440 1439 1438 1437 1434 1433 1432 1431 1429 1427 1427 1426 1424 1423 1420 1418 1415 1413 1411 1408 1406 1403 1400 1398 1394 1392 1389 1386 1382 1382 1381 1380 1378 1377 1378 1378 1378 1378
1440 1438 1437 1436 1435 1433 1432 1430 1428 1427 1426 1425 1423 1422 1419 1417 1413 1410 1407 1404 1401 1398 1395 1392 1389 1386 1383 1379 1376 1374 1373 1372 1372 1371 1371 1370 1370 1370
1439 1439 1438 1437 1436 1434 1433 1432 1430 1427 1425 1424 1422 1420 1417 1415 1411 1408 1404 1400 1396 1392 1391 1388 1385 1381 1377 1375 1372 1368 1368 1366 1365 1364 1364 1362 1362 1363
1439 1439 1437 1436 1435 1434 1432 1431 1429 1426 1425 1422 1420 1417 1414 1412 1408 1405 1401 1397 1393 1388 1384 1382 1379 1376 1372 1370 1366 1364 1360 1359 1358 1357 1357 1354 1354 1353
1438 1438 1437 1436 1435 1433 1431 1429 1428 1426 1423 1421 1418 1416 1413 1409 1405 1402 1398 1394 1390 1385 1382 1378 1374 1370 1366 1363 1362 1358 1355 1353 1351 1349 1349 1348 1345 1346
1438 1438 1436 1435 1434 1432 1430 1429 1427 1425 1422 1420 1417 1414 1411 1407 1403 1399 1396 1392 1388 1384 1380 1376 1372 1369 1363 1357 1354 1353 1348 1344 1341 1340 1340 1341 1339 1337
1438 1437 1436 1435 1434 1432 1431 1428 1426 1424 1421 1418 1416 1413 1409 1405 1401 1398 1394 1390 1386 1382 1377 1374 1370 1366 1361 1356 1349 1345 1345 1341 1339 1337 1335 1336 1334 1328
1438 1438 1437 1435 1433 1431 1429 1428 1425 1423 1420 1417 1414 1411 1407 1403 1399 1396 1392 1388 1384 1380 1375 1371 1368 1364 1359 1353 1347 1341 1338 1338 1336 1334 1332 1330 1328 1328
1438 1437 1436 1434 1432 1430 1428 1426 1423 1421 1418 1415 1412 1408 1404 1401 1397 1393 1390 1386 1382 1378 1373 1368 1364 1360 1355 1350 1343 1337 1333 1330 1329 1326 1325 1323 1323 1326
1437 1436 1434 1433 1431 1429 1426 1424 1421 1419 1416 1413 1410 1406 1402 1399 1395 1392 1388 1384 1380 1375 1371 1365 1361 1357 1352 1347 1340 1334 1329 1326 1323 1319 1318 1317 1319 1325